User: anonymous   Login
Location: Unspecified
(0.0000°N, 0.0000°E)
Time: 01:12:00
(UTC+00:00)
Language:

ISIS 1 - Orbit

View from above orbital plane
View from above orbital plane
View from above satellite
View from above satellite

Ground track
Ground track

The orbit data is extracted from the following two-line orbital elements,

1 03669U 69009A   21023.39974985  .00000019  00000-0  15254-4 0  9991
2 03669  88.4379   2.2578 1710364 263.3162  77.1262 11.29495589137216
Epoch (UTC): 23 January 2021 09:35:38
Eccentricity: 0.1710364
inclination: 88.4379°
perigee height: 577 km
apogee height: 3448 km
right ascension of ascending node: 2.2578°
argument of perigee: 263.3162°
revolutions per day: 11.29495589
mean anomaly at epoch: 77.1262°
orbit number at epoch: 13721

The dashed part of the orbit path shows where the satellite is in the earth's shadow,  

DLR